Home   Weather   Arth   Past weeks

Flag for Switzerland Past Weather in Arth, Schwyz, Switzerland — Yesterday and Last 2 Weeks

Now
38 °F

Chilly.


Feels Like: 38 °F
Forecast: 33 / 44 °F
Wind: 2 mph from Southeast

Location: Altdorf

Current Time: Apr 24, 2017 at 5:41:22 am

Latest Report: Apr 24, 2017 at 4:00 am


Visibility: N/A

Pressure: 30.15 "Hg

Humidity: 90%

Dew Point: 35 °F

Location of ArthLocation

Past Weather in Arth — Graph

°F

Arth Temperature Yesterday

Maximum temperature yesterday: 57 °F (at 4:00 pm)
Minimum temperature yesterday: 42 °F (at 11:00 pm)
Average temperature yesterday: 50 °F

High & Low Weather Summary for the Past Weeks

 TemperatureHumidityPressure
High73 °F (Apr 10, 3:00 pm)97% (Apr 15, 10:00 pm)30.57 "Hg (Apr 15, 10:00 pm)
Low27 °F (Apr 21, 7:00 am)29% (Apr 21, 3:00 pm)29.90 "Hg (Apr 13, 5:00 pm)
Average48 °F70%30.20 "Hg
* Reported Apr 9 4:00 am — Apr 24 4:00 am, Arth, Weather by CustomWeather, © 2017

Note: Actual official high and low records may vary slightly from our data, if they occured in-between our weather recording intervals... More about our weather records

Advertising

Arth Weather History for the Previous 24 Hours

Scroll right to see more
 ConditionsComfort  
Time TempWeatherWind HumidityBarometerVisibility
4:00 am
Mon, Apr 24
38 °FChilly.2 mph90%30.15 "HgN/A
3:00 am39 °FChilly.1 mph89%30.16 "HgN/A
2:00 am41 °FClear.1 mph83%30.16 "Hg16 mi
1:00 am40 °FQuite cool.2 mph85%30.18 "HgN/A
12:00 am44 °FQuite cool.1 mph78%30.17 "HgN/A
11:00 pm
Sun, Apr 23
42 °FPassing clouds.2 mph80%30.19 "Hg16 mi
10:00 pm45 °FQuite cool.3 mph75%30.18 "HgN/A
9:00 pm49 °FCool.2 mph65%30.16 "HgN/A
8:00 pm53 °FPassing clouds.1 mph54%30.14 "Hg16 mi
7:00 pm54 °FCool.3 mph53%30.13 "HgN/A
6:00 pm54 °FCool.3 mph57%30.13 "HgN/A
5:00 pm57 °FScattered clouds.5 mph47%30.12 "Hg12 mi
4:00 pm57 °FRefreshingly cool.6 mph56%30.14 "HgN/A
3:00 pm54 °FCool.5 mph53%30.17 "HgN/A
2:00 pm55 °FOvercast.5 mph61%30.19 "Hg9 mi
1:00 pm50 °FCool.3 mph61%30.22 "HgN/A
12:00 pm49 °FCool.2 mph61%30.23 "HgN/A
11:00 am48 °FOvercast.5 mph61%30.23 "Hg9 mi
10:00 am47 °FCool.7 mph61%30.23 "HgN/A
9:00 am47 °FCool.8 mph68%30.22 "HgN/A
8:00 am46 °FOvercast.12 mph72%30.22 "Hg9 mi
7:00 am47 °FCool.16 mph72%30.19 "HgN/A
6:00 am49 °FCool.15 mph69%30.17 "HgN/A
5:00 am49 °FCool.10 mph67%30.17 "HgN/A
Weather by CustomWeather, © 2017

See weather overviewHow to use our weather pages